• In Germany
  • List of Countries
  • For 7 days
  • Water Temperature
  • Satellite Maps
  • Weather Map
  • Weather Widgets
  • user-avatar
    Login

    Hourly Weather Mendoza

    Today, 24 April, Tuesday

    Time Temperature Precipitation Wind Pressure Humidity
    00:00 +19°C° 0 mm 3 mps 699 mmHg 83%
    01:00 +19°C° 0 mm 3 mps 699 mmHg 84%
    02:00 +18°C° 0 mm 3 mps 699 mmHg 83%
    03:00 +18°C° 0 mm 3 mps 699 mmHg 82%
    04:00 +18°C° 0 mm 3 mps 699 mmHg 81%
    05:00 +18°C° 0.1 mm 3 mps 699 mmHg 79%
    06:00 +19°C° 0.1 mm 2 mps 699 mmHg 78%
    07:00 +18°C° 0 mm 3 mps 699 mmHg 77%
    08:00 +19°C° 0 mm 3 mps 699 mmHg 73%
    09:00 +20°C° 0 mm 3 mps 699 mmHg 68%
    10:00 +21°C° 0 mm 3 mps 699 mmHg 64%
    11:00 +22°C° 0 mm 3 mps 699 mmHg 60%
    12:00 +24°C° 0 mm 3 mps 698 mmHg 55%
    13:00 +25°C° 0 mm 3 mps 698 mmHg 51%
    14:00 +25°C° 0 mm 2 mps 698 mmHg 51%
    15:00 +25°C° 0 mm 2 mps 698 mmHg 50%
    16:00 +25°C° 0 mm 2 mps 698 mmHg 50%
    17:00 +24°C° 0 mm 2 mps 699 mmHg 54%
    18:00 +23°C° 0 mm 2 mps 699 mmHg 59%
    19:00 +21°C° 0 mm 2 mps 699 mmHg 64%
    20:00 +20°C° 0 mm 2 mps 700 mmHg 64%
    21:00 +20°C° 0 mm 3 mps 700 mmHg 65%
    22:00 +19°C° 0 mm 3 mps 700 mmHg 66%
    23:00 +19°C° 0 mm 3 mps 700 mmHg 66%

    Tomorrow, 25 April, Wednesday

    Time Temperature Precipitation Wind Pressure Humidity
    00:00 +19°C° 0 mm 3 mps 700 mmHg 67%
    01:00 +19°C° 0 mm 3 mps 700 mmHg 67%
    02:00 +19°C° 0 mm 3 mps 700 mmHg 68%
    03:00 +18°C° 0 mm 3 mps 700 mmHg 69%
    04:00 +18°C° 0 mm 3 mps 700 mmHg 70%
    05:00 +18°C° 0.1 mm 3 mps 700 mmHg 70%
    06:00 +19°C° 0.1 mm 3 mps 700 mmHg 70%
    07:00 +19°C° 0.1 mm 3 mps 700 mmHg 70%
    08:00 +20°C° 0 mm 3 mps 700 mmHg 66%
    09:00 +21°C° 0 mm 3 mps 700 mmHg 61%
    10:00 +22°C° 0 mm 3 mps 700 mmHg 57%
    11:00 +24°C° 0 mm 3 mps 699 mmHg 55%
    12:00 +25°C° 0 mm 3 mps 699 mmHg 54%
    13:00 +26°C° 0 mm 3 mps 698 mmHg 53%
    14:00 +26°C° 0 mm 3 mps 698 mmHg 54%
    15:00 +26°C° 0 mm 3 mps 697 mmHg 55%
    16:00 +26°C° 0 mm 3 mps 697 mmHg 56%
    17:00 +25°C° 0 mm 2 mps 697 mmHg 62%
    18:00 +24°C° 0 mm 2 mps 697 mmHg 68%
    19:00 +23°C° 0 mm 2 mps 697 mmHg 73%
    20:00 +21°C° 0 mm 2 mps 697 mmHg 72%
    21:00 +21°C° 0 mm 2 mps 697 mmHg 71%
    22:00 +22°C° 0 mm 1 mps 697 mmHg 70%
    23:00 +20°C° 0 mm 2 mps 696 mmHg 69%

    Day after tomorrow, 26 April, Thursday

    Time Temperature Precipitation Wind Pressure Humidity
    00:00 +20°C° 0 mm 2 mps 696 mmHg 67%
    01:00 +20°C° 0 mm 2 mps 696 mmHg 66%
    02:00 +19°C° 0 mm 2 mps 695 mmHg 66%
    03:00 +19°C° 0 mm 2 mps 695 mmHg 66%
    04:00 +19°C° 0 mm 2 mps 695 mmHg 66%
    05:00 +19°C° 0 mm 2 mps 695 mmHg 64%
    06:00 +20°C° 0 mm 2 mps 695 mmHg 62%
    07:00 +20°C° 0 mm 2 mps 695 mmHg 60%
    08:00 +23°C° 0 mm 2 mps 695 mmHg 56%
    09:00 +24°C° 0 mm 2 mps 695 mmHg 52%
    10:00 +26°C° 0 mm 3 mps 695 mmHg 48%
    11:00 +27°C° 0 mm 3 mps 694 mmHg 43%
    12:00 +28°C° 0 mm 3 mps 694 mmHg 38%
    13:00 +30°C° 0 mm 3 mps 693 mmHg 33%
    14:00 +30°C° 0 mm 3 mps 693 mmHg 31%
    15:00 +30°C° 0 mm 3 mps 693 mmHg 30%
    16:00 +30°C° 0 mm 3 mps 693 mmHg 29%
    17:00 +28°C° 0 mm 3 mps 693 mmHg 32%
    18:00 +27°C° 0 mm 3 mps 694 mmHg 36%
    19:00 +25°C° 0 mm 2 mps 694 mmHg 39%
    20:00 +25°C° 0 mm 3 mps 694 mmHg 36%
    21:00 +23°C° 0 mm 4 mps 695 mmHg 32%
    22:00 +23°C° 0 mm 4 mps 695 mmHg 29%
    23:00 +23°C° 0 mm 4 mps 695 mmHg 27%

    27 April, Friday

    Time Temperature Precipitation Wind Pressure Humidity
    00:00 +22°C° 0 mm 4 mps 695 mmHg 25%
    01:00 +22°C° 0 mm 4 mps 695 mmHg 23%
    02:00 +21°C° 0 mm 5 mps 696 mmHg 23%
    03:00 +21°C° 0 mm 6 mps 696 mmHg 23%
    04:00 +21°C° 0 mm 6 mps 697 mmHg 23%
    05:00 +20°C° 0 mm 6 mps 697 mmHg 27%
    06:00 +19°C° 0 mm 6 mps 698 mmHg 32%
    07:00 +16°C° 0 mm 6 mps 699 mmHg 37%
    08:00 +17°C° 0 mm 6 mps 699 mmHg 36%
    09:00 +19°C° 0 mm 6 mps 699 mmHg 35%
    10:00 +20°C° 0 mm 5 mps 699 mmHg 34%
    11:00 +20°C° 0 mm 5 mps 699 mmHg 34%
    12:00 +21°C° 0 mm 6 mps 699 mmHg 33%
    13:00 +21°C° 0 mm 6 mps 698 mmHg 33%
    14:00 +20°C° 0 mm 5 mps 698 mmHg 34%
    15:00 +20°C° 0 mm 5 mps 698 mmHg 35%
    16:00 +19°C° 0 mm 5 mps 698 mmHg 36%
    17:00 +18°C° 0 mm 4 mps 699 mmHg 37%
    18:00 +17°C° 0 mm 4 mps 699 mmHg 39%
    19:00 +16°C° 0 mm 3 mps 700 mmHg 40%
    20:00 +14°C° 0 mm 3 mps 700 mmHg 41%
    21:00 +14°C° 0 mm 3 mps 700 mmHg 42%
    22:00 +13°C° 0 mm 3 mps 700 mmHg 43%
    23:00 +13°C° 0 mm 3 mps 700 mmHg 42%

    28 April, Saturday

    Time Temperature Precipitation Wind Pressure Humidity
    00:00 +12°C° 0 mm 3 mps 699 mmHg 42%
    01:00 +12°C° 0 mm 3 mps 699 mmHg 42%
    02:00 +12°C° 0 mm 3 mps 699 mmHg 42%
    03:00 +11°C° 0 mm 3 mps 699 mmHg 41%
    04:00 +11°C° 0 mm 3 mps 698 mmHg 40%
    05:00 +11°C° 0 mm 3 mps 699 mmHg 39%
    06:00 +12°C° 0 mm 3 mps 699 mmHg 38%
    07:00 +12°C° 0 mm 3 mps 699 mmHg 36%
    08:00 +14°C° 0 mm 3 mps 699 mmHg 33%
    09:00 +16°C° 0 mm 3 mps 699 mmHg 31%
    10:00 +18°C° 0 mm 3 mps 699 mmHg 28%
    11:00 +19°C° 0 mm 3 mps 699 mmHg 27%
    12:00 +20°C° 0 mm 2 mps 698 mmHg 27%
    13:00 +21°C° 0 mm 2 mps 698 mmHg 26%
    14:00 +21°C° 0 mm 2 mps 697 mmHg 27%
    15:00 +21°C° 0 mm 2 mps 697 mmHg 28%
    16:00 +21°C° 0 mm 2 mps 697 mmHg 29%
    17:00 +20°C° 0 mm 2 mps 697 mmHg 32%
    18:00 +18°C° 0 mm 2 mps 697 mmHg 36%
    19:00 +18°C° 0 mm 1 mps 698 mmHg 39%
    20:00 +16°C° 0 mm 2 mps 697 mmHg 41%
    21:00 +16°C° 0 mm 2 mps 697 mmHg 42%
    22:00 +16°C° 0 mm 2 mps 697 mmHg 43%
    23:00 +15°C° 0 mm 2 mps 697 mmHg 43%

    29 April, Sunday

    Time Temperature Precipitation Wind Pressure Humidity
    00:00 +15°C° 0 mm 2 mps 696 mmHg 44%
    01:00 +15°C° 0 mm 2 mps 696 mmHg 45%
    02:00 +14°C° 0 mm 2 mps 695 mmHg 46%
    03:00 +13°C° 0 mm 3 mps 695 mmHg 47%
    04:00 +12°C° 0 mm 3 mps 695 mmHg 48%
    05:00 +13°C° 0 mm 3 mps 695 mmHg 47%
    06:00 +13°C° 0 mm 3 mps 695 mmHg 47%
    07:00 +14°C° 0 mm 3 mps 696 mmHg 47%
    08:00 +17°C° 0 mm 3 mps 696 mmHg 43%
    09:00 +19°C° 0 mm 3 mps 696 mmHg 39%
    10:00 +21°C° 0 mm 3 mps 696 mmHg 35%
    11:00 +22°C° 0 mm 3 mps 695 mmHg 32%
    12:00 +24°C° 0 mm 3 mps 695 mmHg 29%
    13:00 +25°C° 0 mm 3 mps 694 mmHg 26%
    14:00 +25°C° 0 mm 3 mps 694 mmHg 26%
    15:00 +25°C° 0 mm 2 mps 694 mmHg 26%
    16:00 +25°C° 0 mm 2 mps 694 mmHg 26%
    17:00 +23°C° 0 mm 2 mps 695 mmHg 32%
    18:00 +21°C° 0 mm 2 mps 695 mmHg 37%
    19:00 +19°C° 0 mm 2 mps 696 mmHg 42%
    20:00 +19°C° 0 mm 2 mps 696 mmHg 45%
    21:00 +18°C° 0 mm 3 mps 696 mmHg 49%
    22:00 +17°C° 0 mm 3 mps 696 mmHg 52%
    23:00 +17°C° 0 mm 3 mps 696 mmHg 59%
    Show more